| time (UTC) | temp F | wind direction | speed MPH | gust MPH | rain 1hr in | rain 24hr in | rain mn in | humidity % | barometer mb |
| 20260906011604 | 85 | 0 | 0.0 | 0.0 | 0.00 | 0.00 | 0.00 | 62 | 1012.6 |
| 20260906010105 | 85 | 227 | 0.0 | 3.0 | 0.00 | 0.00 | 0.00 | 59 | 1012.5 |
| 20260906004603 | 86 | 227 | 1.0 | 4.0 | 0.00 | 0.00 | 0.00 | 59 | 1012.4 |
| 20260906003101 | 86 | 225 | 2.0 | 6.0 | 0.00 | 0.00 | 0.00 | 59 | 1012.2 |
| 20260906001559 | 86 | 215 | 1.0 | 6.0 | 0.00 | 0.00 | 0.00 | 57 | 1012.4 |
| 20260906000111 | 87 | 0 | 4.0 | 8.0 | 0.00 | 0.00 | 0.00 | 57 | 1012.6 |
| 20260905234620 | 87 | 211 | 3.0 | 9.0 | 0.00 | 0.00 | 0.00 | 56 | 1012.7 |
| 20260905233102 | 87 | 221 | 4.0 | 9.0 | 0.00 | 0.00 | 0.00 | 55 | 1012.8 |
| 20260905231605 | 87 | 268 | 4.0 | 10.0 | 0.00 | 0.00 | 0.00 | 55 | 1012.6 |
| 20260905230106 | 88 | 245 | 5.0 | 12.0 | 0.00 | 0.00 | 0.00 | 53 | 1012.8 |
| 20260905224616 | 88 | 213 | 4.0 | 11.0 | 0.00 | 0.00 | 0.00 | 52 | 1012.5 |
| 20260905223100 | 90 | 234 | 5.0 | 17.0 | 0.00 | 0.00 | 0.00 | 50 | 1012.7 |
| 20260905221602 | 91 | 241 | 7.0 | 12.0 | 0.00 | 0.00 | 0.00 | 49 | 1012.4 |
| 20260905220118 | 92 | 203 | 6.0 | 14.0 | 0.00 | 0.00 | 0.00 | 48 | 1012.6 |
| 20260905214603 | 92 | 201 | 4.0 | 12.0 | 0.00 | 0.00 | 0.00 | 49 | 1012.8 |
| 20260905213102 | 91 | 155 | 5.0 | 17.0 | 0.00 | 0.00 | 0.00 | 52 | 1012.7 |
| 20260905211556 | 90 | 202 | 13.0 | 20.0 | 0.00 | 0.00 | 0.00 | 53 | 1012.7 |
| 20260905210109 | 90 | 215 | 9.0 | 17.0 | 0.00 | 0.00 | 0.00 | 53 | 1013.3 |
| 20260905204559 | 94 | 196 | 10.0 | 27.0 | 0.00 | 0.00 | 0.00 | 45 | 1013.3 |
| 20260905203114 | 103 | 207 | 1.0 | 10.0 | 0.00 | 0.00 | 0.00 | 35 | 1012.9 |
| 20260905201603 | 103 | 345 | 2.0 | 5.0 | 0.00 | 0.00 | 0.00 | 38 | 1012.8 |
| 20260905200107 | 102 | 5 | 3.0 | 9.0 | 0.00 | 0.00 | 0.00 | 39 | 1013.1 |
| 20260905194558 | 103 | 355 | 3.0 | 10.0 | 0.00 | 0.00 | 0.00 | 38 | 1013.1 |
| 20260905193103 | 103 | 355 | 4.0 | 9.0 | 0.00 | 0.00 | 0.00 | 40 | 1013.4 |
| 20260905191605 | 102 | 44 | 3.0 | 10.0 | 0.00 | 0.00 | 0.00 | 39 | 1013.5 |
| 20260905184611 | 101 | 24 | 4.0 | 10.0 | 0.00 | 0.00 | 0.00 | 39 | 1014.1 |
| 20260905183057 | 100 | 352 | 3.0 | 12.0 | 0.00 | 0.00 | 0.00 | 41 | 1014.1 |
| 20260905181603 | 99 | 302 | 3.0 | 10.0 | 0.00 | 0.00 | 0.00 | 44 | 1014.2 |
| 20260905180105 | 99 | 360 | 5.0 | 10.0 | 0.00 | 0.00 | 0.00 | 46 | 1014.3 |
| 20260905174604 | 98 | 284 | 4.0 | 9.0 | 0.00 | 0.00 | 0.00 | 47 | 1014.4 |
| 20260905173105 | 98 | 273 | 6.0 | 9.0 | 0.00 | 0.00 | 0.00 | 46 | 1014.6 |
| 20260905171635 | 98 | 277 | 3.0 | 9.0 | 0.00 | 0.00 | 0.00 | 46 | 1014.9 |
| 20260905170107 | 97 | 0 | 2.0 | 9.0 | 0.00 | 0.00 | 0.00 | 48 | 1015.1 |
| 20260905164605 | 97 | 346 | 3.0 | 9.0 | 0.00 | 0.00 | 0.00 | 48 | 1015.2 |
| 20260905163058 | 96 | 254 | 2.0 | 10.0 | 0.00 | 0.00 | 0.00 | 48 | 1015.2 |
| 20260905161601 | 95 | 321 | 2.0 | 9.0 | 0.00 | 0.00 | 0.00 | 48 | 1015.3 |
| 20260905160109 | 93 | 310 | 4.0 | 9.0 | 0.00 | 0.00 | 0.00 | 52 | 1015.4 |
| 20260905154648 | 91 | 281 | 2.0 | 8.0 | 0.00 | 0.00 | 0.00 | 57 | 1015.5 |
| 20260905153104 | 90 | 270 | 2.0 | 5.0 | 0.00 | 0.00 | 0.00 | 61 | 1015.7 |
| 20260905151604 | 88 | 180 | 0.0 | 4.0 | 0.00 | 0.00 | 0.00 | 63 | 1015.7 |
| 20260905150105 | 87 | 0 | 1.0 | 5.0 | 0.00 | 0.00 | 0.00 | 64 | 1015.4 |
| 20260905144610 | 87 | 0 | 0.0 | 5.0 | 0.00 | 0.00 | 0.00 | 63 | 1015.4 |
| 20260905143106 | 87 | 286 | 4.0 | 8.0 | 0.00 | 0.00 | 0.00 | 62 | 1015.4 |
| 20260905141601 | 85 | 188 | 5.0 | 9.0 | 0.00 | 0.00 | 0.00 | 65 | 1015.4 |
| 20260905140105 | 83 | 154 | 3.0 | 7.0 | 0.00 | 0.00 | 0.00 | 68 | 1015.5 |
| 20260905134608 | 82 | 200 | 3.0 | 8.0 | 0.00 | 0.00 | 0.00 | 70 | 1015.5 |
| 20260905133103 | 81 | 178 | 3.0 | 8.0 | 0.00 | 0.00 | 0.00 | 75 | 1015.3 |
| 20260905131559 | 80 | 215 | 2.0 | 6.0 | 0.00 | 0.00 | 0.00 | 78 | 1015.2 |
| 20260905130101 | 80 | 165 | 2.0 | 6.0 | 0.00 | 0.00 | 0.00 | 79 | 1015.4 |
| 20260905124602 | 79 | 191 | 2.0 | 5.0 | 0.00 | 0.00 | 0.00 | 79 | 1015.1 |
| 20260905123105 | 79 | 166 | 0.0 | 3.0 | 0.00 | 0.00 | 0.00 | 81 | 1015.1 |
| 20260905121608 | 79 | 154 | 0.0 | 2.0 | 0.00 | 0.00 | 0.00 | 80 | 1015.0 |
| 20260905114607 | 79 | 205 | 0.0 | 0.0 | 0.00 | 0.00 | 0.00 | 78 | 1014.7 |
| 20260905113100 | 79 | 205 | 0.0 | 2.0 | 0.00 | 0.00 | 0.00 | 77 | 1014.5 |
| 20260905111625 | 79 | 205 | 1.0 | 4.0 | 0.00 | 0.00 | 0.00 | 76 | 1014.5 |
| 20260905110112 | 79 | 0 | 0.0 | 0.0 | 0.00 | 0.00 | 0.00 | 78 | 1014.4 |
| 20260905104618 | 79 | 0 | 0.0 | 2.0 | 0.00 | 0.00 | 0.00 | 78 | 1014.4 |
| 20260905103055 | 80 | 204 | 0.0 | 3.0 | 0.00 | 0.00 | 0.00 | 79 | 1014.5 |
| 20260905101557 | 80 | 0 | 1.0 | 4.0 | 0.00 | 0.00 | 0.00 | 78 | 1014.5 |
| 20260905100056 | 80 | 215 | 1.0 | 6.0 | 0.00 | 0.00 | 0.00 | 77 | 1014.3 |
| 20260905094715 | 80 | 178 | 1.0 | 4.0 | 0.00 | 0.00 | 0.00 | 77 | 1014.3 |
| 20260905093116 | 80 | 0 | 0.0 | 3.0 | 0.00 | 0.00 | 0.00 | 76 | 1014.4 |
| 20260905091604 | 80 | 178 | 1.0 | 3.0 | 0.00 | 0.00 | 0.00 | 76 | 1014.3 |
| 20260905090103 | 80 | 178 | 1.0 | 4.0 | 0.00 | 0.00 | 0.00 | 77 | 1014.3 |
| 20260905084608 | 80 | 0 | 0.0 | 0.0 | 0.00 | 0.00 | 0.00 | 76 | 1014.3 |
| 20260905083056 | 80 | 0 | 0.0 | 0.0 | 0.00 | 0.00 | 0.00 | 75 | 1014.4 |
| 20260905081603 | 81 | 0 | 0.0 | 1.0 | 0.00 | 0.00 | 0.00 | 74 | 1014.3 |
| 20260905080121 | 81 | 0 | 0.0 | 0.0 | 0.00 | 0.00 | 0.00 | 72 | 1014.4 |
| 20260905074605 | 82 | 0 | 0.0 | 4.0 | 0.00 | 0.00 | 0.00 | 72 | 1014.4 |
| 20260905073109 | 82 | 211 | 1.0 | 4.0 | 0.00 | 0.00 | 0.00 | 71 | 1014.4 |
| 20260905071602 | 82 | 190 | 1.0 | 5.0 | 0.00 | 0.00 | 0.00 | 70 | 1014.5 |
| 20260905070104 | 83 | 178 | 4.0 | 6.0 | 0.00 | 0.00 | 0.00 | 70 | 1014.6 |
| 20260905064600 | 83 | 151 | 2.0 | 6.0 | 0.00 | 0.00 | 0.00 | 69 | 1014.7 |
| 20260905063108 | 83 | 168 | 1.0 | 5.0 | 0.00 | 0.00 | 0.00 | 68 | 1014.7 |
| 20260905061613 | 83 | 146 | 2.0 | 5.0 | 0.00 | 0.00 | 0.00 | 68 | 1014.7 |
| 20260905060113 | 83 | 170 | 1.0 | 6.0 | 0.00 | 0.00 | 0.00 | 67 | 1014.9 |
| 20260905054608 | 84 | 0 | 1.0 | 5.0 | 0.00 | 0.00 | 0.00 | 66 | 1014.8 |
| 20260905053104 | 84 | 171 | 2.0 | 6.0 | 0.00 | 0.00 | 0.00 | 66 | 1014.8 |
| 20260905051609 | 84 | 196 | 3.0 | 6.0 | 0.00 | 0.00 | 0.00 | 66 | 1014.9 |
| 20260905050104 | 84 | 159 | 2.0 | 7.0 | 0.00 | 0.00 | 0.00 | 66 | 1014.9 |
| 20260905044604 | 85 | 0 | 1.0 | 6.0 | 0.00 | 0.00 | 0.00 | 65 | 1014.9 |
| 20260905043101 | 85 | 161 | 3.0 | 6.0 | 0.00 | 0.00 | 0.00 | 64 | 1014.9 |
| 20260905041607 | 85 | 157 | 2.0 | 5.0 | 0.00 | 0.00 | 0.00 | 63 | 1014.8 |
| 20260905040112 | 85 | 187 | 1.0 | 4.0 | 0.00 | 0.00 | 0.00 | 63 | 1014.9 |
| 20260905034607 | 85 | 187 | 1.0 | 5.0 | 0.00 | 0.00 | 0.00 | 62 | 1014.9 |
| 20260905033107 | 85 | 187 | 1.0 | 4.0 | 0.00 | 0.00 | 0.00 | 62 | 1015.0 |
| 20260905031555 | 86 | 188 | 1.0 | 4.0 | 0.00 | 0.00 | 0.00 | 62 | 1015.1 |
| 20260905030111 | 86 | 0 | 0.0 | 4.0 | 0.00 | 0.00 | 0.00 | 62 | 1015.2 |
| 20260905024612 | 87 | 194 | 1.0 | 4.0 | 0.00 | 0.00 | 0.00 | 62 | 1015.1 |
| 20260905023107 | 87 | 194 | 1.0 | 4.0 | 0.00 | 0.00 | 0.00 | 62 | 1015.1 |
| 20260905021614 | 87 | 173 | 2.0 | 5.0 | 0.00 | 0.00 | 0.00 | 62 | 1014.9 |
| 20260905020109 | 88 | 194 | 2.0 | 7.0 | 0.00 | 0.00 | 0.00 | 61 | 1014.8 |
| 20260905014603 | 88 | 146 | 2.0 | 5.0 | 0.00 | 0.00 | 0.00 | 60 | 1014.6 |
| 20260905013120 | 89 | 0 | 0.0 | 3.0 | 0.00 | 0.00 | 0.00 | 59 | 1014.4 |